BCS385 LSGG-EDDP

Flight info

Callsign BCS385
Flight time 1h 3m
Altitude 34000
Route SOSAL N871 KORED DCT BERSU DCT DITON DCT LOKTA DCT ETAGO DCT IBAGA T435 PIBAD T954 GOXLI GOXLI1R
Aircraft B77L/H-SDE1E2E3FGHIJ2J3J4J5M1RWXY/LB1D1

Departure

Time 2026-05-07 17:09
Airport Geneva International Airport (LSGG)

Arrival

Time 2026-05-07 18:12
Airport Leipzig/Halle Airport (EDDP)
Time Latitude Longitude Altitude Speed Heading
2026-05-07 16:44 46.23833 6.11393 1377 ft 0 kts 136°
2026-05-07 17:00 46.23838 6.11385 1382 ft 3 kts 138°
2026-05-07 17:00 46.23854 6.11368 1377 ft 3 kts 152°
2026-05-07 17:01 46.23872 6.11357 1376 ft 3 kts 173°
2026-05-07 17:01 46.23891 6.11358 1376 ft 3 kts 206°
2026-05-07 17:01 46.23900 6.11366 1376 ft 1 kts 225°
2026-05-07 17:04 46.23881 6.11338 1376 ft 11 kts 225°
2026-05-07 17:04 46.23799 6.11218 1380 ft 18 kts 225°
2026-05-07 17:05 46.23710 6.11086 1403 ft 18 kts 225°
2026-05-07 17:05 46.23621 6.10955 1406 ft 18 kts 225°
2026-05-07 17:05 46.23532 6.10824 1404 ft 18 kts 225°
2026-05-07 17:05 46.23442 6.10693 1405 ft 18 kts 225°
2026-05-07 17:06 46.23349 6.10568 1407 ft 18 kts 225°
2026-05-07 17:06 46.23259 6.10438 1406 ft 18 kts 225°
2026-05-07 17:06 46.23170 6.10306 1403 ft 18 kts 227°
2026-05-07 17:06 46.23085 6.10170 1407 ft 19 kts 226°
2026-05-07 17:07 46.22981 6.10018 1408 ft 23 kts 225°
2026-05-07 17:07 46.22871 6.09855 1410 ft 23 kts 226°
2026-05-07 17:07 46.22760 6.09695 1408 ft 23 kts 224°
2026-05-07 17:07 46.22650 6.09533 1410 ft 23 kts 226°
2026-05-07 17:08 46.22557 6.09357 1412 ft 23 kts 250°
2026-05-07 17:08 46.22578 6.09177 1424 ft 15 kts 329°
2026-05-07 17:08 46.22649 6.09200 1423 ft 2 kts 43°
2026-05-07 17:08 46.22696 6.09267 1425 ft 29 kts 45°
2026-05-07 17:09 46.23009 6.09725 1424 ft 98 kts 45°
2026-05-07 17:09 46.23633 6.10642 1385 ft 155 kts 45°
2026-05-07 17:09 46.24447 6.11864 1673 ft 172 kts 46°
2026-05-07 17:09 46.25303 6.13158 2079 ft 182 kts 45°
2026-05-07 17:10 46.26183 6.14439 2729 ft 180 kts 44°
2026-05-07 17:10 46.27073 6.15723 3296 ft 182 kts 44°
2026-05-07 17:10 46.28005 6.17055 3543 ft 202 kts 44°
2026-05-07 17:10 46.29057 6.18567 3734 ft 226 kts 45°
2026-05-07 17:11 46.30215 6.20283 4011 ft 247 kts 45°
2026-05-07 17:11 46.31417 6.22076 4721 ft 252 kts 45°
2026-05-07 17:11 46.32667 6.23931 5311 ft 261 kts 45°
2026-05-07 17:11 46.33947 6.25864 5956 ft 270 kts 46°
2026-05-07 17:12 46.35264 6.27843 6629 ft 276 kts 46°
2026-05-07 17:12 46.36613 6.29852 7299 ft 281 kts 46°
2026-05-07 17:12 46.37998 6.31897 7975 ft 287 kts 46°
2026-05-07 17:12 46.39416 6.33973 8674 ft 292 kts 46°
2026-05-07 17:13 46.40856 6.36073 9391 ft 296 kts 46°
2026-05-07 17:13 46.42325 6.38212 10039 ft 302 kts 46°
2026-05-07 17:13 46.43833 6.40406 10476 ft 316 kts 45°
2026-05-07 17:13 46.45423 6.42730 10653 ft 340 kts 45°
2026-05-07 17:14 46.47143 6.45253 10840 ft 364 kts 45°
2026-05-07 17:14 46.48968 6.47944 11221 ft 381 kts 45°
2026-05-07 17:14 46.50852 6.50735 11863 ft 391 kts 45°
2026-05-07 17:14 46.52764 6.53586 12717 ft 396 kts 45°
2026-05-07 17:15 46.54693 6.56480 13630 ft 400 kts 45°
2026-05-07 17:15 46.56481 6.59582 14274 ft 406 kts 58°
2026-05-07 17:15 46.57541 6.63396 14882 ft 410 kts 78°
2026-05-07 17:15 46.57745 6.67528 15001 ft 412 kts 96°
2026-05-07 17:16 46.57296 6.71614 15022 ft 410 kts 101°
2026-05-07 17:16 46.56872 6.75730 15097 ft 414 kts 98°
2026-05-07 17:16 46.56518 6.79912 15865 ft 417 kts 98°
2026-05-07 17:16 46.56221 6.84102 16656 ft 417 kts 92°
2026-05-07 17:17 46.56567 6.88282 17203 ft 427 kts 73°
2026-05-07 17:17 46.57796 6.92209 17953 ft 430 kts 56°
2026-05-07 17:17 46.59642 6.95608 18620 ft 430 kts 48°
2026-05-07 17:17 46.61581 6.98961 19194 ft 436 kts 49°
2026-05-07 17:18 46.63526 7.02380 19869 ft 439 kts 49°
2026-05-07 17:18 46.65464 7.05830 20556 ft 442 kts 49°
2026-05-07 17:18 46.67413 7.09333 21205 ft 446 kts 50°
2026-05-07 17:18 46.69373 7.12875 21840 ft 450 kts 50°
2026-05-07 17:19 46.71343 7.16447 22461 ft 454 kts 50°
2026-05-07 17:19 46.73328 7.20053 23080 ft 458 kts 50°
2026-05-07 17:19 46.75331 7.23693 23708 ft 462 kts 50°
2026-05-07 17:19 46.77325 7.27322 24245 ft 464 kts 50°
2026-05-07 17:20 46.79357 7.31006 24745 ft 468 kts 50°
2026-05-07 17:20 46.81420 7.34732 25198 ft 473 kts 49°
2026-05-07 17:20 46.83504 7.38499 25654 ft 478 kts 49°
2026-05-07 17:20 46.85598 7.42296 26151 ft 482 kts 49°
2026-05-07 17:21 46.87706 7.46145 26619 ft 486 kts 49°
2026-05-07 17:21 46.89816 7.50022 27078 ft 489 kts 49°
2026-05-07 17:21 46.91916 7.53889 27527 ft 493 kts 49°
2026-05-07 17:21 46.94058 7.57840 28008 ft 497 kts 49°
2026-05-07 17:22 46.96209 7.61810 28506 ft 499 kts 49°
2026-05-07 17:22 46.98374 7.65810 28953 ft 502 kts 49°
2026-05-07 17:22 47.00550 7.69835 29342 ft 506 kts 49°
2026-05-07 17:22 47.02743 7.73897 29825 ft 507 kts 49°
2026-05-07 17:23 47.04929 7.77953 30356 ft 506 kts 49°
2026-05-07 17:23 47.07106 7.81998 30855 ft 505 kts 49°
2026-05-07 17:23 47.09277 7.86037 31320 ft 505 kts 49°
2026-05-07 17:23 47.11449 7.90082 31758 ft 505 kts 49°
2026-05-07 17:24 47.13601 7.94151 32284 ft 503 kts 51°
2026-05-07 17:24 47.15550 7.98427 32803 ft 502 kts 56°
2026-05-07 17:24 47.17363 8.02739 33213 ft 503 kts 56°
2026-05-07 17:24 47.19191 8.07140 33572 ft 504 kts 56°
2026-05-07 17:25 47.21026 8.11543 33951 ft 504 kts 56°
2026-05-07 17:25 47.22879 8.15950 33999 ft 509 kts 56°
2026-05-07 17:25 47.26610 8.24773 34005 ft 505 kts 56°
2026-05-07 17:26 47.30853 8.32879 34030 ft 496 kts 42°
2026-05-07 17:26 47.36103 8.39238 34018 ft 488 kts 30°
2026-05-07 17:27 47.41822 8.44672 34018 ft 488 kts 29°
2026-05-07 17:27 47.47530 8.50094 34026 ft 488 kts 29°
2026-05-07 17:28 47.53225 8.55592 34037 ft 489 kts 30°
2026-05-07 17:28 47.57964 8.60208 34028 ft 490 kts 30°
2026-05-07 17:29 47.64581 8.66678 34025 ft 490 kts 30°
2026-05-07 17:29 47.70271 8.72254 34041 ft 490 kts 30°
2026-05-07 17:30 47.75037 8.76935 34014 ft 489 kts 30°
2026-05-07 17:30 47.80707 8.82376 34032 ft 487 kts 27°
2026-05-07 17:31 47.86561 8.87398 34023 ft 485 kts 26°
2026-05-07 17:31 47.92438 8.92333 34028 ft 484 kts 26°
2026-05-07 17:32 47.98285 8.97320 34032 ft 484 kts 26°
2026-05-07 17:32 48.04108 9.02352 34027 ft 484 kts 27°
2026-05-07 17:33 48.09939 9.07418 34043 ft 484 kts 27°
2026-05-07 17:33 48.15773 9.12501 34036 ft 485 kts 27°
2026-05-07 17:34 48.21601 9.17588 34030 ft 485 kts 27°
2026-05-07 17:34 48.27392 9.22656 34036 ft 484 kts 27°
2026-05-07 17:35 48.33218 9.27766 34038 ft 485 kts 27°
2026-05-07 17:35 48.39053 9.32899 34032 ft 485 kts 27°
2026-05-07 17:36 48.44874 9.38034 34038 ft 484 kts 27°
2026-05-07 17:36 48.50642 9.43135 34038 ft 484 kts 28°
2026-05-07 17:37 48.56448 9.48285 34034 ft 483 kts 28°
2026-05-07 17:37 48.62249 9.53442 34035 ft 484 kts 28°
2026-05-07 17:38 48.68048 9.58613 34045 ft 483 kts 28°
2026-05-07 17:38 48.73852 9.63801 34037 ft 483 kts 28°
2026-05-07 17:39 48.79602 9.68956 34040 ft 484 kts 28°
2026-05-07 17:39 48.85397 9.74165 34043 ft 484 kts 28°
2026-05-07 17:40 48.91195 9.79390 34054 ft 484 kts 28°
2026-05-07 17:40 48.96992 9.84630 34045 ft 484 kts 28°
2026-05-07 17:41 49.02782 9.89876 34046 ft 484 kts 28°
2026-05-07 17:41 49.08535 9.95104 34049 ft 484 kts 28°
2026-05-07 17:42 49.14320 10.00376 34051 ft 483 kts 28°
2026-05-07 17:42 49.20091 10.05649 34048 ft 483 kts 28°
2026-05-07 17:43 49.25854 10.10930 34048 ft 482 kts 28°
2026-05-07 17:43 49.31608 10.16216 34060 ft 481 kts 29°
2026-05-07 17:44 49.37317 10.21476 34058 ft 481 kts 29°
2026-05-07 17:44 49.43089 10.26808 34053 ft 481 kts 29°
2026-05-07 17:45 49.45943 10.29451 33930 ft 477 kts 29°
2026-05-07 17:45 49.48744 10.32049 33580 ft 473 kts 29°
2026-05-07 17:45 49.51562 10.34665 33149 ft 472 kts 29°
2026-05-07 17:45 49.54375 10.37279 32759 ft 470 kts 29°
2026-05-07 17:46 49.57173 10.39883 32407 ft 467 kts 29°
2026-05-07 17:46 49.59948 10.42470 32099 ft 464 kts 29°
2026-05-07 17:46 49.62701 10.45041 31801 ft 461 kts 29°
2026-05-07 17:46 49.65437 10.47598 31511 ft 458 kts 29°
2026-05-07 17:47 49.68152 10.50139 31213 ft 455 kts 29°
2026-05-07 17:47 49.70842 10.52659 31104 ft 450 kts 29°
2026-05-07 17:47 49.76206 10.57515 31056 ft 450 kts 26°
2026-05-07 17:48 49.81810 10.61952 31052 ft 453 kts 25°
2026-05-07 17:48 49.87447 10.66367 31048 ft 454 kts 25°
2026-05-07 17:49 49.93037 10.70806 30537 ft 447 kts 26°
2026-05-07 17:49 49.95787 10.73005 30165 ft 441 kts 26°
2026-05-07 17:49 49.98497 10.75176 29684 ft 436 kts 26°
2026-05-07 17:50 50.01183 10.77328 29109 ft 433 kts 26°
2026-05-07 17:50 50.03856 10.79471 28552 ft 431 kts 26°
2026-05-07 17:50 50.06517 10.81607 27984 ft 428 kts 26°
2026-05-07 17:50 50.09123 10.83828 27461 ft 426 kts 30°
2026-05-07 17:51 50.11582 10.86265 26958 ft 423 kts 32°
2026-05-07 17:51 50.14050 10.88845 26462 ft 421 kts 33°
2026-05-07 17:51 50.16463 10.91404 25989 ft 418 kts 33°
2026-05-07 17:51 50.18862 10.93941 25513 ft 415 kts 33°
2026-05-07 17:52 50.21218 10.96416 25041 ft 413 kts 32°
2026-05-07 17:52 50.23611 10.98912 24586 ft 411 kts 32°
2026-05-07 17:52 50.25986 11.01378 24122 ft 409 kts 32°
2026-05-07 17:52 50.28354 11.03832 23682 ft 407 kts 32°
2026-05-07 17:53 50.30703 11.06264 23192 ft 404 kts 32°
2026-05-07 17:53 50.33049 11.08695 22705 ft 401 kts 32°
2026-05-07 17:53 50.35369 11.11102 22206 ft 400 kts 32°
2026-05-07 17:53 50.37658 11.13480 21645 ft 389 kts 32°
2026-05-07 17:54 50.39886 11.15798 21047 ft 380 kts 32°
2026-05-07 17:54 50.42078 11.18080 20451 ft 379 kts 32°
2026-05-07 17:54 50.44297 11.20391 19918 ft 385 kts 32°
2026-05-07 17:54 50.46533 11.22722 19377 ft 387 kts 32°
2026-05-07 17:55 50.48724 11.25009 19164 ft 378 kts 32°
2026-05-07 17:55 50.50910 11.27297 19050 ft 378 kts 32°
2026-05-07 17:55 50.53093 11.29584 19054 ft 377 kts 32°
2026-05-07 17:55 50.55277 11.31873 19045 ft 376 kts 32°
2026-05-07 17:56 50.57452 11.34157 19041 ft 376 kts 32°
2026-05-07 17:56 50.59626 11.36440 19044 ft 376 kts 32°
2026-05-07 17:56 50.61800 11.38727 19051 ft 376 kts 32°
2026-05-07 17:56 50.63977 11.41019 19054 ft 376 kts 32°
2026-05-07 17:57 50.66148 11.43308 19055 ft 376 kts 32°
2026-05-07 17:57 50.67591 11.44829 19049 ft 376 kts 32°
2026-05-07 17:57 50.70496 11.47898 19054 ft 376 kts 32°
2026-05-07 17:57 50.72668 11.50196 18917 ft 371 kts 32°
2026-05-07 17:58 50.74781 11.52436 18330 ft 363 kts 32°
2026-05-07 17:58 50.76877 11.54659 17542 ft 360 kts 32°
2026-05-07 17:58 50.78919 11.56826 16686 ft 358 kts 32°
2026-05-07 17:58 50.80982 11.59017 15840 ft 356 kts 32°
2026-05-07 17:59 50.83028 11.61193 15069 ft 352 kts 32°
2026-05-07 17:59 50.85050 11.63347 14365 ft 348 kts 32°
2026-05-07 17:59 50.87043 11.65472 13635 ft 344 kts 32°
2026-05-07 17:59 50.89043 11.67607 13021 ft 346 kts 32°
2026-05-07 18:00 50.91029 11.69730 12650 ft 341 kts 32°
2026-05-07 18:00 50.92976 11.71820 12261 ft 336 kts 32°
2026-05-07 18:00 50.94907 11.73899 11841 ft 334 kts 32°
2026-05-07 18:00 50.96825 11.75970 11400 ft 333 kts 32°
2026-05-07 18:01 50.98734 11.78035 10966 ft 331 kts 33°
2026-05-07 18:01 51.00631 11.80088 10542 ft 329 kts 33°
2026-05-07 18:01 51.02518 11.82133 10162 ft 326 kts 32°
2026-05-07 18:01 51.04355 11.84131 10067 ft 313 kts 33°
2026-05-07 18:02 51.07753 11.87851 10050 ft 286 kts 33°
2026-05-07 18:02 51.09389 11.89649 10062 ft 285 kts 33°
2026-05-07 18:02 51.11021 11.91445 10066 ft 285 kts 33°
2026-05-07 18:03 51.12655 11.93245 10078 ft 286 kts 33°
2026-05-07 18:03 51.14293 11.95049 10072 ft 287 kts 33°
2026-05-07 18:03 51.15944 11.96868 10073 ft 288 kts 32°
2026-05-07 18:03 51.17681 11.98251 10052 ft 281 kts 11°
2026-05-07 18:04 51.19609 11.98334 9798 ft 278 kts 345°
2026-05-07 18:04 51.21328 11.97036 9412 ft 274 kts 319°
2026-05-07 18:04 51.22513 11.94679 8886 ft 275 kts 300°
2026-05-07 18:04 51.23365 11.91930 8410 ft 276 kts 295°
2026-05-07 18:05 51.24146 11.89136 8042 ft 274 kts 295°
2026-05-07 18:05 51.25029 11.86519 7587 ft 269 kts 311°
2026-05-07 18:05 51.26522 11.84757 7112 ft 269 kts 340°
2026-05-07 18:05 51.28324 11.84092 6714 ft 266 kts 352°
2026-05-07 18:06 51.30156 11.83751 6330 ft 265 kts 354°
2026-05-07 18:06 51.31984 11.83461 5939 ft 263 kts 354°
2026-05-07 18:06 51.33802 11.83179 5551 ft 261 kts 354°
2026-05-07 18:06 51.35604 11.82904 5175 ft 259 kts 354°
2026-05-07 18:07 51.37398 11.82635 4738 ft 259 kts 354°
2026-05-07 18:07 51.39165 11.82591 4222 ft 257 kts 11°
2026-05-07 18:07 51.40756 11.83830 3810 ft 256 kts 43°
2026-05-07 18:07 51.41670 11.86178 3631 ft 246 kts 75°
2026-05-07 18:08 51.41671 11.88839 3388 ft 237 kts 108°
2026-05-07 18:08 51.40994 11.91149 3157 ft 222 kts 111°
2026-05-07 18:08 51.40595 11.93453 3028 ft 205 kts 99°
2026-05-07 18:08 51.40365 11.95689 3052 ft 204 kts 94°
2026-05-07 18:09 51.40272 11.98019 3054 ft 214 kts 91°
2026-05-07 18:09 51.40244 12.00416 2985 ft 214 kts 87°
2026-05-07 18:09 51.40322 12.02757 2665 ft 211 kts 84°
2026-05-07 18:09 51.40434 12.05068 2387 ft 203 kts 83°
2026-05-07 18:10 51.40537 12.07234 2113 ft 187 kts 84°
2026-05-07 18:10 51.40630 12.09210 1887 ft 170 kts 84°
2026-05-07 18:10 51.40714 12.10998 1650 ft 151 kts 84°
2026-05-07 18:10 51.40792 12.12655 1461 ft 150 kts 84°
2026-05-07 18:11 51.40870 12.14321 1217 ft 152 kts 84°
2026-05-07 18:11 51.40925 12.15450 1045 ft 154 kts 83°
2026-05-07 18:11 51.41032 12.17740 783 ft 155 kts 84°
2026-05-07 18:11 51.41107 12.19470 587 ft 156 kts 84°
2026-05-07 18:12 51.41195 12.21183 453 ft 151 kts 84°
2026-05-07 18:12 51.41262 12.22650 464 ft 113 kts 86°
2026-05-07 18:12 51.41310 12.23645 472 ft 55 kts 86°
2026-05-07 18:12 51.41234 12.24196 467 ft 43 kts 118°
2026-05-07 18:13 51.41200 12.24310 468 ft 0 kts 116°
2026-05-07 18:14 51.41179 12.24406 469 ft 16 kts 98°
2026-05-07 18:14 51.41154 12.24564 469 ft 16 kts 149°
2026-05-07 18:15 51.41067 12.24598 467 ft 10 kts 171°
2026-05-07 18:15 51.41023 12.24605 467 ft 10 kts 176°
2026-05-07 18:15 51.40955 12.24613 468 ft 10 kts 175°
2026-05-07 18:15 51.40870 12.24624 469 ft 18 kts 176°
2026-05-07 18:16 51.40807 12.24633 468 ft 5 kts 175°
2026-05-07 18:16 51.40777 12.24610 467 ft 5 kts 230°
2026-05-07 18:16 51.40767 12.24556 467 ft 5 kts 262°
2026-05-07 18:16 51.40767 12.24526 467 ft 0 kts 265°